Location: Breton
(53.1167°N, 114.4833°W)
Time: 02:57:07
(UTC+00:00)

N. Korean satellite - Visible Passes

Search period start: 07 December 2021 00:00
Search period end: 17 December 2021 00:00
Orbit: 446 x 495 km, 97.3° (Epoch: 06 December)

Date Brightness Start Highest point End Pass type
(mag) Time Alt. Az. Time Alt. Az. Time Alt. Az.
07 Dec 7.3 12:47:32 10° NNE 12:50:51 49° E 12:54:08 10° S visible
07 Dec 8.0 14:21:32 10° NNW 14:23:44 16° WNW 14:25:55 10° WSW visible
08 Dec 9.6 01:01:45 10° SW 01:04:02 16° W 01:06:19 10° NW visible
08 Dec 8.7 12:19:20 10° NE 12:22:10 24° E 12:24:58 10° SSE visible
08 Dec 7.2 13:52:23 10° N 13:55:23 29° WNW 13:58:22 10° SW visible
09 Dec 8.6 00:32:09 10° SSW 00:35:17 31° W 00:38:25 10° NNW visible
09 Dec 9.7 11:51:50 10° ENE 11:53:22 12° E 11:54:53 10° ESE visible
09 Dec 6.3 13:23:35 10° N 13:26:57 61° WNW 13:30:17 10° SSW visible
10 Dec 7.0 00:03:11 10° S 00:06:38 66° WSW 00:10:05 10° NNW visible
10 Dec 7.4 12:55:01 10° NNE 13:00:22 22° S 13:01:44 10° S visible
10 Dec 8.1 14:29:19 10° NNW 14:31:10 14° WNW 14:31:26 14° WNW visible
11 Dec 9.8 01:09:48 10° WSW 01:11:38 14° W 01:13:27 10° WNW visible
11 Dec 8.9 12:26:42 10° NNE 12:32:11 13° SSE 12:32:42 10° SSE visible
11 Dec 7.7 14:00:00 10° N 14:06:18 - SW 14:01:56 22° NW visible
12 Dec 8.9 00:39:52 10° SSW 00:42:50 26° W 00:45:46 10° NW visible
12 Dec9.912:03:49SE12:03:49SE11:58:34NEvisible
12 Dec 7.9 13:31:05 10° N 13:37:55 - SSW 13:32:37 24° N visible
13 Dec 7.4 00:10:44 10° S 00:14:07 53° W 00:17:30 10° NNW visible
13 Dec 8.6 13:02:26 10° NNE 13:09:27 - S 13:03:24 18° NNE visible
13 Dec 8.5 14:37:08 10° NNW 14:37:27 11° NW 14:37:27 11° NW visible
14 Dec 9.9 01:18:01 10° WSW 01:19:09 11° W 01:20:17 10° WNW visible
14 Dec 9.3 12:34:01 10° NNE 12:40:54 - SSE 12:34:14 11° NNE visible
14 Dec 8.4 14:07:33 10° NNW 14:15:00 - SW 14:08:17 14° NNW visible
15 Dec 9.2 00:47:34 10° SW 00:50:18 22° W 00:53:01 10° NW visible
15 Dec10.012:12:19SSE12:12:19SSE12:05:07NEvisible
15 Dec 8.6 13:38:33 10° N 13:46:25 - SW 13:39:10 14° N visible
16 Dec 7.8 00:18:15 10° S 00:21:32 43° W 00:24:49 10° NNW visible
16 Dec 9.0 13:09:48 10° NNE 13:17:46 - SSW 13:10:05 12° NNE visible
